ARIANE 2 DEB, 40783

Orbit data source: Space-Track

ARIANE 2 DEB, 40783 is space debris originally from a launch on Fri, 27 Jan 1989 UTC launched from the French Guiana (FRGUI). Debris objects in space refer to the collection of defunct objects orbiting the Earth. Examples of debris include non-operational satellites, rocket bodies, and fragments generated from explosions, collisions, or faulty payload assembly.

Loading next visibility...
ARIANE 2 DEB details
Identifier
40783, 1989-006CC
Orbit
Molniya
Last TLE update3 months ago
Origin
Flag of FRArianespace (FR)
ManufacturerEADS/LV
MissionSpacecraft
Bus & MotorUnknown
MassUnknown
Launch date (UTC)
1989-01-27 (36 years ago)
Launch vehicleUnknown
Launch site
French Guiana (FRGUI)
Object type
Payload
Rocket body
Debris
Shape & HBRUnknown
Radar Cross SectionMedium (>0.1 m² and <1 m²)

Expand to show TLE details & history

TLE from 3 months ago
0 ARIANE 2 DEB
1 40783U 89006CC  24242.65588814 -.00000098  00000-0  97751-2 0  9993
2 40783   6.6817 250.9329 7040634 122.7025 348.3225  2.24621294 32278
Epoch: 2024-08-29T15:44Z
Definitive object data (Epoch: 2024-08-29T15:44:28.735Z)
Latitude5.1232°
Longitude86.17737°
Altitude3,890.424 km
Speed7.839 km/s
True Right ascension20h 02m 32s
True Declination5° 06' 07"
Sunlit
Object was in daylight at TLE epoch
Visualization TLE readout
Latitude-2.2536°
Longitude-20.17736°
Altitude22,604.703 km
Speed3.364 km/s
Apparent Right ascension13h 06m 48s
Apparent Declination-8° 47' 31"
Sunlit
Object is in daylight
Visualization observer readout
Local Sidereal Time02:04:36
Azimuth26.4° NE
Elevation-56.312°
Doppler factor1
Orbital elements
Apogee altitude35,598.423 km
Perigee altitude911.733 km
Semi-major axis24,633.215 km
Eccentricity0.7040634
Inclination6.6817°
RAAN250.9329°
Arg. of periapsis122.7025°
True anomaly286.51446°
Mean anomaly348.3225°
Eccentric anomaly325.4375°
Mean motion0.56139 °/min
BSTAR0.0097751
Orbital period641.27 mins
Loading maneuver chart data...
Loading historical data...
Loading historical data...
Loading historical data...
Loading historical data...
Loading historical data...
Loading historical data...
Loading historical data...

ARIANE 2 DEB Visibility forecast

Observer location: undefined°, undefined

Span
Click to sort rows by Start time (UTC) header in descending order
Start Az.
Max El. time (UTC)
Max El. Az.
Max El.
End time (UTC)
End Az.
588 mins2024-12-14 12:49:52.421Z212.416° SW2024-12-14 16:56:52.421Z193.321° SSW34.898°2024-12-14 22:37:52.421Z144.064° SSE
|